Eugene, OR

6:45 PM PST on December 14, 2019 (GMT -0800)
Mahlon Sweet

Weather History for KEUG - November, 2019

Change the Weather History Date:

Tuesday, November 12, 2019

  Actual Average Record
Temperature  
Mean Temperature 48 °F 46 °F  
Max Temperature 58 °F 53 °F 69 °F (1974)
Min Temperature 37 °F 38 °F 17 °F (1978)
Degree Days  
Heating Degree Days 17 19  
Month to date heating degree days 234 216  
Since 1 July heating degree days 830 786  
Cooling Degree Days 0 0  
Month to date cooling degree days 0 0  
Year to date cooling degree days 353 239  
Moisture  
Dew Point 43 °F    
Average Humidity 84    
Maximum Humidity 96    
Minimum Humidity 72    
Precipitation  
Precipitation T in 0.26 in 1.29 in (1965)
Month to date precipitation T 2.66  
Year to date precipitation 29.74 33.21  
Sea Level Pressure  
Sea Level Pressure 30.13 in    
Wind  
Wind Speed 4 mph (SSW)    
Max Wind Speed 9 mph    
Max Gust Speed 12 mph    
Visibility 4 miles    
Events Fog    
T = Trace of Precipitation, MM = Missing Value Source: NWS Daily Summary

Daily Weather History Graph

Daily Weather History Graph

Search for Another Location

Airport or City:

Astronomy

Nov. 12, 2019 Rise Set
Actual Time 7:04 AM PST 4:49 PM PST
Civil Twilight 6:33 AM PST 5:20 PM PST
Nautical Twilight 5:58 AM PST 5:55 PM PST
Astronomical Twilight 5:24 AM PST 6:29 PM PST
Moon 5:20 PM PST (11/12) 6:59 AM PST (11/12)
Length of Visible Light 10h 47m
Length of Day
9h 45m
Full, 100% of the Moon is Illuminated
Nov 12
Full
Nov 19
Last Quarter
Nov 26
New
Dec 3
First Quarter
Dec 11
Full

Hourly Weather History & Observations

Time (PST) Temp. Windchill Dew Point Humidity Pressure Visibility Wind Dir Wind Speed Gust Speed Precip Events Conditions
12:01 AM 39.9 °F 37.8 °F 39.0 °F 97% 30.12 in 0.5 mi SSW 3.5 mph - N/A Fog Mist
12:12 AM 37.9 °F 35.5 °F 37.0 °F 97% 30.12 in 0.2 mi SSW 3.5 mph - N/A Fog Mist
12:22 AM 37.9 °F - 37.0 °F 97% 30.11 in 0.5 mi Calm Calm - N/A Fog Mist
12:29 AM 37.9 °F 35.5 °F 37.0 °F 97% 30.11 in 0.5 mi SSE 3.5 mph - N/A Fog Mist
12:47 AM 37.9 °F - 37.0 °F 97% 30.10 in 0.2 mi Calm Calm - N/A Fog Mist
12:54 AM 39.9 °F - 37.9 °F 93% 30.11 in 0.5 mi Calm Calm - N/A Fog Mist
1:08 AM 39.9 °F 37.8 °F 39.0 °F 97% 30.11 in 0.2 mi SW 3.5 mph - N/A Fog Mist
1:54 AM 42.1 °F 39.2 °F 39.9 °F 92% 30.11 in 0.2 mi WSW 4.6 mph - N/A Fog Mist
2:04 AM 42.1 °F 40.2 °F 41.0 °F 96% 30.11 in 0.2 mi SSW 3.5 mph - N/A Fog Mist
2:27 AM 41.0 °F 39.0 °F 39.0 °F 93% 30.10 in 0.2 mi SSE 3.5 mph - N/A Fog Mist
2:54 AM 41.0 °F 39.0 °F 39.0 °F 93% 30.12 in 0.2 mi South 3.5 mph - N/A Fog Mist
3:02 AM 41.0 °F 38.0 °F 39.9 °F 96% 30.11 in 0.5 mi SE 4.6 mph - N/A Fog Mist
3:18 AM 42.1 °F 40.2 °F 39.9 °F 92% 30.10 in 1.5 mi South 3.5 mph - N/A Fog Overcast
3:38 AM 41.0 °F - 39.9 °F 96% 30.11 in 0.8 mi Calm Calm - N/A Fog Mist
3:47 AM 41.0 °F 39.0 °F 39.0 °F 93% 30.12 in 0.5 mi SW 3.5 mph - N/A Fog Mist
3:54 AM 41.0 °F 39.0 °F 39.0 °F 93% 30.12 in 0.5 mi South 3.5 mph - N/A Fog Mist
4:18 AM 41.0 °F 35.8 °F 39.0 °F 93% 30.08 in 1.0 mi ESE 8.1 mph - N/A Fog Mist
4:27 AM 41.0 °F 38.0 °F 39.9 °F 96% 30.09 in 2.0 mi South 4.6 mph - N/A Fog Mostly Cloudy
4:29 AM 42.1 °F 40.2 °F 39.9 °F 92% 30.10 in 3.0 mi South 3.5 mph - N/A Fog Scattered Clouds
4:52 AM 41.0 °F 37.1 °F 39.2 °F 93% 30.10 in 4.0 mi SSW 5.8 mph - N/A Fog Mostly Cloudy
4:54 AM 41.0 °F 36.4 °F 39.0 °F 93% 30.10 in 4.0 mi SSW 6.9 mph - N/A Fog Mostly Cloudy
5:00 AM 41.0 °F 38.0 °F 39.9 °F 96% 30.09 in 1.5 mi SSW 4.6 mph - N/A Fog Mostly Cloudy
5:03 AM 41.0 °F 39.0 °F 39.9 °F 96% 30.09 in 0.8 mi SW 3.5 mph - N/A Fog Overcast
5:26 AM 42.1 °F 40.2 °F 41.0 °F 96% 30.09 in 0.5 mi SSW 3.5 mph - N/A Fog Fog
5:54 AM 42.1 °F 37.7 °F 39.9 °F 92% 30.10 in 0.8 mi SSW 6.9 mph - N/A   Mist
6:00 AM 43.0 °F 39.5 °F 41.0 °F 93% 30.09 in 2.5 mi SSW 5.8 mph - N/A   Mist
6:16 AM 42.1 °F 38.4 °F 41.0 °F 96% 30.09 in 5.0 mi South 5.8 mph - N/A   Overcast
6:54 AM 42.1 °F 37.1 °F 39.9 °F 92% 30.12 in 10.0 mi SSW 8.1 mph - N/A   Overcast
7:54 AM 43.0 °F 38.8 °F 41.0 °F 93% 30.12 in 10.0 mi SSE 6.9 mph - N/A   Overcast
8:54 AM 46.9 °F - 44.1 °F 90% 30.15 in 10.0 mi South 4.6 mph - N/A   Overcast
9:54 AM 48.0 °F - 46.0 °F 93% 30.16 in 10.0 mi SSW 4.6 mph - N/A   Overcast
10:54 AM 52.0 °F - 48.0 °F 86% 30.15 in 10.0 mi SE 5.8 mph - N/A   Overcast
11:54 AM 54.0 °F - 50.0 °F 86% 30.16 in 10.0 mi South 5.8 mph - 0.00 in   Overcast
12:54 PM 55.0 °F - 50.0 °F 83% 30.16 in 10.0 mi Calm Calm - N/A   Overcast
1:54 PM 57.0 °F - 50.0 °F 77% 30.15 in 10.0 mi SSW 3.5 mph - N/A   Overcast
2:54 PM 57.0 °F - 48.0 °F 72% 30.16 in 10.0 mi Calm Calm - N/A   Overcast
3:12 PM 57.9 °F - 48.0 °F 70% 30.15 in 10.0 mi Calm Calm - N/A   Overcast
3:47 PM 57.9 °F - 48.9 °F 72% 30.14 in 10.0 mi Calm Calm - N/A   Overcast
3:54 PM 57.9 °F - 48.9 °F 72% 30.14 in 10.0 mi Calm Calm - N/A   Overcast
4:54 PM 54.0 °F - 48.9 °F 83% 30.14 in 10.0 mi NNE 3.5 mph - N/A   Mostly Cloudy
5:54 PM 54.0 °F - 50.0 °F 86% 30.15 in 10.0 mi North 4.6 mph - N/A   Mostly Cloudy
6:19 PM 54.0 °F - 50.0 °F 86% 30.15 in 10.0 mi North 3.5 mph - N/A   Overcast
6:54 PM 54.0 °F - 50.0 °F 86% 30.15 in 10.0 mi North 5.8 mph - N/A   Overcast
7:49 PM 53.6 °F - 48.2 °F 82% 30.15 in 9.0 mi North 5.8 mph - N/A   Overcast
7:54 PM 52.0 °F - 48.9 °F 89% 30.15 in 8.0 mi North 5.8 mph - N/A   Overcast
8:54 PM 51.1 °F - 48.9 °F 92% 30.15 in 6.0 mi North 4.6 mph - N/A   Overcast
9:54 PM 48.9 °F - 46.0 °F 90% 30.15 in 5.0 mi NNW 5.8 mph - N/A   Mostly Cloudy
10:27 PM 46.9 °F - 44.1 °F 90% 30.15 in 4.0 mi North 5.8 mph - N/A   Mostly Cloudy
10:51 PM 46.4 °F 44.3 °F 44.6 °F 93% 30.14 in 3.0 mi North 4.6 mph - N/A   Overcast
10:54 PM 46.0 °F 43.1 °F 44.1 °F 93% 30.14 in 3.0 mi North 5.8 mph - N/A   Overcast
11:17 PM 46.9 °F - 44.1 °F 90% 30.14 in 2.5 mi North 5.8 mph - N/A   Overcast
11:24 PM 46.9 °F - 45.0 °F 93% 30.14 in 3.0 mi North 4.6 mph - N/A   Overcast
11:54 PM 48.9 °F - 46.9 °F 93% 30.14 in 3.0 mi North 6.9 mph - N/A   Overcast